Location: Krakow
(50.0830°N, 19.9170°E)
Time: 07:38:20
(UTC+02:00)

A-11 Canister half - Pass Details

Date: 18 March 2026
Orbit: 1523 x 1684 km, 47.3° (Epoch: 18 April)

Event Time Altitude Azimuth Distance (km) Brightness Sun altitude
Rises 09:58:48 0° 248° (WSW) 4,882 11.5 33.9°
Reaches altitude 10° 10:01:59 10° 246° (WSW) 3,878 11.1 34.2°
Maximum altitude 10:11:46 70° 166° (SSE) 1,684 10.3 35.0°
Drops below altitude 10° 10:21:14 10° 85° (E) 3,755 11.4 35.7°
Sets 10:24:15 0° 84° (E) 4,722 11.8 36.0°
